CW9861 Weather Reports


time (UTC)temp
C
wind
direction
speed
KPH
gust
KPH
rain 1hr
cm
rain 24hr
cm
rain mn
cm
humidity
%
barometer
mb
20260507185959 11 306 4.8 12.9 0.00 0.00 0.00 48 1010.7
20260507185457 10 303 8.0 20.9 0.00 0.00 0.00 45 1010.9
20260507184957 11 282 8.0 20.9 0.00 0.00 0.00 45 1010.8
20260507184457 11 319 4.8 16.1 0.00 0.00 0.00 45 1010.7
20260507183957 12 229 8.0 19.3 0.00 0.00 0.00 44 1010.6
20260507183458 12 259 9.7 19.3 0.00 0.00 0.00 45 1010.6
20260507182956 12 293 8.0 19.3 0.00 0.00 0.00 44 1010.7
20260507182456 12 294 6.4 22.5 0.00 0.00 0.00 44 1010.6
20260507181957 11 309 11.3 22.5 0.00 0.00 0.00 44 1010.7
20260507181456 12 315 9.7 25.7 0.00 0.00 0.00 42 1010.7
20260507180957 12 224 6.4 25.7 0.00 0.00 0.00 45 1010.6
20260507180457 12 260 4.8 16.1 0.00 0.00 0.00 44 1010.6
20260507175958 12 299 8.0 19.3 0.00 0.00 0.00 47 1010.7
20260507175458 12 250 6.4 22.5 0.00 0.00 0.00 47 1010.7
20260507174956 12 262 9.7 22.5 0.00 0.00 0.00 44 1010.9
20260507174457 12 298 8.0 19.3 0.00 0.00 0.00 45 1011.0
20260507173956 12 293 4.8 22.5 0.00 0.00 0.00 48 1010.9
20260507173457 11 243 6.4 22.5 0.00 0.00 0.00 50 1010.9
20260507172956 11 288 6.4 17.7 0.00 0.00 0.00 48 1011.1
20260507172456 11 311 8.0 24.1 0.00 0.00 0.00 48 1011.2
20260507171958 12 296 8.0 24.1 0.00 0.00 0.00 51 1011.2
20260507171457 11 226 9.7 19.3 0.00 0.00 0.00 50 1011.3
20260507170957 11 297 4.8 20.9 0.00 0.00 0.00 48 1011.3
20260507170457 11 242 9.7 20.9 0.00 0.00 0.00 48 1011.4
20260507165958 11 314 9.7 29.0 0.00 0.00 0.00 47 1011.5
20260507165457 12 312 8.0 20.9 0.00 0.00 0.00 49 1011.7
20260507164956 12 201 11.3 20.9 0.00 0.00 0.00 47 1011.7
20260507164457 11 328 4.8 24.1 0.00 0.00 0.00 50 1011.8
20260507163956 10 262 9.7 24.1 0.00 0.00 0.00 50 1011.8
20260507163458 11 340 8.0 17.7 0.00 0.00 0.00 46 1011.9
20260507162957 11 326 6.4 17.7 0.00 0.00 0.00 50 1011.8
20260507162457 11 218 4.8 14.5 0.00 0.00 0.00 50 1011.9
20260507161957 11 326 6.4 20.9 0.00 0.00 0.00 49 1011.9
20260507161456 10 317 8.0 20.9 0.00 0.00 0.00 52 1012.0
20260507160956 10 328 8.0 24.1 0.00 0.00 0.00 51 1012.0
20260507160456 10 299 6.4 24.1 0.00 0.00 0.00 49 1012.0
20260507155958 10 285 8.0 25.7 0.00 0.00 0.00 50 1012.1
20260507155457 10 252 12.9 25.7 0.00 0.00 0.00 49 1012.0
20260507154956 10 266 6.4 20.9 0.00 0.00 0.00 52 1012.0
20260507154457 10 257 8.0 17.7 0.00 0.00 0.00 52 1012.0
20260507153956 9 197 8.0 19.3 0.00 0.00 0.00 52 1012.0
20260507153456 9 290 11.3 19.3 0.00 0.00 0.00 51 1012.0
20260507152956 10 271 9.7 19.3 0.00 0.00 0.00 51 1012.0
20260507152456 9 286 8.0 19.3 0.00 0.00 0.00 52 1012.0
20260507151956 9 332 8.0 17.7 0.00 0.00 0.00 55 1012.0
20260507151457 10 280 6.4 17.7 0.00 0.00 0.00 51 1012.0
20260507150958 10 280 6.4 16.1 0.00 0.00 0.00 50 1011.9
20260507150457 10 321 4.8 16.1 0.00 0.00 0.00 54 1012.0
20260507145956 9 339 6.4 12.9 0.00 0.00 0.00 55 1011.9
20260507145456 8 261 1.6 16.1 0.00 0.00 0.00 58 1012.0
20260507144957 7 256 6.4 19.3 0.00 0.00 0.00 58 1012.1
20260507144457 8 294 6.4 19.3 0.00 0.00 0.00 57 1012.1
20260507143957 8 286 6.4 20.9 0.00 0.00 0.00 55 1012.0
20260507143456 8 244 4.8 20.9 0.00 0.00 0.00 56 1012.0
20260507142956 8 266 6.4 17.7 0.00 0.00 0.00 53 1012.1
20260507142458 9 315 4.8 17.7 0.00 0.00 0.00 53 1012.1
20260507141958 8 297 6.4 20.9 0.00 0.00 0.00 54 1012.2
20260507141457 10 343 9.7 20.9 0.00 0.00 0.00 51 1012.2
20260507140957 10 314 4.8 17.7 0.00 0.00 0.00 55 1012.2
20260507140457 9 276 6.4 17.7 0.00 0.00 0.00 57 1012.2
20260507135958 8 286 6.4 12.9 0.00 0.00 0.00 58 1012.3
20260507135457 8 318 6.4 16.1 0.00 0.00 0.00 59 1012.2
20260507134957 8 305 4.8 14.5 0.00 0.00 0.00 63 1012.1
20260507134457 8 249 4.8 17.7 0.00 0.00 0.00 61 1012.2
20260507133956 8 271 6.4 20.9 0.00 0.00 0.00 63 1012.3
20260507133458 8 307 6.4 20.9 0.00 0.00 0.00 64 1012.2
20260507132958 8 257 4.8 14.5 0.00 0.00 0.00 66 1012.1
20260507132457 8 220 4.8 14.5 0.00 0.00 0.00 65 1012.2
20260507131957 7 307 4.8 12.9 0.00 0.00 0.00 66 1012.2
20260507131456 7 266 6.4 12.9 0.00 0.00 0.00 66 1012.2
20260507123956 5 222 3.2 8.0 0.00 0.00 0.00 79 1011.9
20260507123457 5 248 1.6 8.0 0.00 0.00 0.00 80 1011.9
20260507122957 4 250 3.2 16.1 0.00 0.00 0.00 81 1011.9
20260507122456 4 259 4.8 16.1 0.00 0.00 0.00 82 1011.9
20260507121956 3 286 3.2 9.7 0.00 0.00 0.00 83 1011.8
20260507121456 3 236 4.8 8.0 0.00 0.00 0.00 84 1011.7
20260507120956 3 284 1.6 4.8 0.00 0.00 0.00 85 1011.9
20260507120456 2 222 1.6 9.7 0.00 0.00 0.00 86 1011.9
20260507115957 2 202 4.8 9.7 0.00 0.00 0.00 86 1011.9
20260507115456 2 301 3.2 6.4 0.00 0.00 0.00 86 1011.8
20260507114956 1 252 3.2 8.0 0.00 0.00 0.00 86 1011.8
20260507114457 1 220 3.2 6.4 0.00 0.00 0.00 86 1011.6
20260507113956 1 233 1.6 4.8 0.00 0.00 0.00 86 1011.6
20260507094958 1 276 0.0 0.0 0.00 0.00 0.00 77 1011.0
20260507094456 1 276 0.0 0.0 0.00 0.00 0.00 77 1011.0
20260507093958 1 276 0.0 0.0 0.00 0.00 0.00 77 1011.0
20260507093456 1 276 0.0 0.0 0.00 0.00 0.00 76 1011.0
20260507092956 2 276 0.0 0.0 0.00 0.00 0.00 76 1011.1
20260507092457 2 276 0.0 0.0 0.00 0.00 0.00 76 1011.1
20260507091957 2 276 0.0 0.0 0.00 0.00 0.00 75 1011.1
20260507091457 2 276 0.0 0.0 0.00 0.00 0.00 75 1011.1
20260507090957 2 276 0.0 0.0 0.00 0.00 0.00 74 1011.2
20260507090456 2 276 0.0 0.0 0.00 0.00 0.00 74 1011.3
20260507085956 2 276 0.0 1.6 0.00 0.00 0.00 74 1011.2
20260507085457 2 276 0.0 1.6 0.00 0.00 0.00 74 1011.2
20260507084956 2 276 0.0 1.6 0.00 0.00 0.00 74 1011.2
20260507084456 2 276 0.0 0.0 0.00 0.00 0.00 74 1011.3
20260507083956 3 276 0.0 0.0 0.00 0.00 0.00 75 1011.3
20260507083456 3 276 0.0 0.0 0.00 0.00 0.00 75 1011.3
20260507082957 3 276 0.0 0.0 0.00 0.00 0.00 74 1011.3
20260507082456 3 276 0.0 1.6 0.00 0.00 0.00 74 1011.3
20260507081957 3 276 0.0 1.6 0.00 0.00 0.00 73 1011.3
20260507073957 4 276 0.0 1.6 0.00 0.00 0.00 69 1011.5
20260507073456 4 276 0.0 1.6 0.00 0.00 0.00 68 1011.4
20260507072957 4 276 0.0 3.2 0.00 0.00 0.00 68 1011.4
20260507072456 5 313 1.6 3.2 0.00 0.00 0.00 68 1011.4
20260507071956 5 312 0.0 6.4 0.00 0.00 0.00 69 1011.3
20260507071456 5 312 0.0 6.4 0.00 0.00 0.00 69 1011.4
20260507070956 5 313 3.2 8.0 0.00 0.00 0.00 69 1011.5
20260507063456 5 280 1.6 6.4 0.00 0.00 0.00 71 1011.6
20260507062956 4 305 3.2 6.4 0.00 0.00 0.00 71 1011.5
20260507062456 4 308 1.6 6.4 0.00 0.00 0.00 72 1011.6
20260507061956 4 315 1.6 3.2 0.00 0.00 0.00 73 1011.6
20260507061457 4 299 0.0 3.2 0.00 0.00 0.00 73 1011.6
20260507060956 4 299 0.0 3.2 0.00 0.00 0.00 73 1011.6
20260507060457 4 299 0.0 3.2 0.00 0.00 0.00 73 1011.6
20260507055957 4 299 0.0 0.0 0.00 0.00 0.00 73 1011.7
20260507055456 4 299 0.0 0.0 0.00 0.00 0.00 72 1011.6
20260507054957 4 299 0.0 0.0 0.00 0.00 0.00 72 1011.6
20260507054457 4 299 0.0 0.0 0.00 0.00 0.00 72 1011.6
20260507053956 4 299 0.0 0.0 0.00 0.00 0.00 72 1011.7
20260507053457 4 299 0.0 0.0 0.00 0.00 0.00 72 1011.6
20260507052957 4 299 0.0 0.0 0.00 0.00 0.00 71 1011.6
20260507052456 4 299 0.0 0.0 0.00 0.00 0.00 70 1011.7
20260507051956 4 299 0.0 0.0 0.00 0.00 0.00 70 1011.8
20260507051456 4 299 0.0 0.0 0.00 0.00 0.00 69 1011.8
20260507050956 4 299 0.0 0.0 0.00 0.00 0.00 68 1011.8
20260507050456 4 299 0.0 0.0 0.00 0.00 0.00 67 1011.8
20260507045958 4 299 0.0 0.0 0.00 0.00 0.00 67 1011.8
20260507045457 5 299 0.0 0.0 0.00 0.00 0.00 66 1011.8
20260507044957 5 299 0.0 0.0 0.00 0.00 0.00 64 1011.7
20260507044457 5 299 0.0 0.0 0.00 0.00 0.00 63 1011.7
20260507043958 5 299 0.0 0.0 0.00 0.00 0.00 62 1011.7
20260507043458 5 299 0.0 0.0 0.00 0.00 0.00 60 1011.8
20260507042958 5 299 0.0 0.0 0.00 0.00 0.00 59 1011.8
20260507042457 5 299 0.0 0.0 0.00 0.00 0.00 58 1011.8
20260507031957 7 309 0.0 3.2 0.00 0.00 0.00 56 1012.0
20260507031457 7 309 0.0 3.2 0.00 0.00 0.00 56 1012.0
20260507030957 7 305 1.6 3.2 0.00 0.00 0.00 55 1012.0
20260507030457 7 297 0.0 3.2 0.00 0.00 0.00 55 1012.0
20260507025959 7 297 0.0 3.2 0.00 0.00 0.00 55 1012.0
20260507025457 7 295 0.0 3.2 0.00 0.00 0.00 55 1012.0
20260507024957 7 290 0.0 6.4 0.00 0.00 0.00 55 1012.0
20260507024457 7 290 1.6 6.4 0.00 0.00 0.00 54 1012.0
20260507023957 8 284 0.0 4.8 0.00 0.00 0.00 54 1012.0
20260507023457 8 309 1.6 4.8 0.00 0.00 0.00 54 1011.9
20260507022957 8 322 1.6 4.8 0.00 0.00 0.00 54 1012.0
20260507022457 8 295 1.6 3.2 0.00 0.00 0.00 54 1011.9
20260507021957 8 297 0.0 3.2 0.00 0.00 0.00 54 1011.9
20260507021457 8 290 0.0 3.2 0.00 0.00 0.00 54 1011.9
20260507020957 8 244 1.6 3.2 0.00 0.00 0.00 53 1011.8
20260507020457 8 266 1.6 4.8 0.00 0.00 0.00 53 1011.7
20260507015957 8 305 1.6 4.8 0.00 0.00 0.00 53 1011.8
20260507015457 8 308 0.0 3.2 0.00 0.00 0.00 52 1011.7
20260507014958 8 307 1.6 4.8 0.00 0.00 0.00 52 1011.7
20260507014457 8 318 1.6 4.8 0.00 0.00 0.00 52 1011.6
20260507013958 8 308 0.0 4.8 0.00 0.00 0.00 52 1011.7
20260507013456 8 257 1.6 6.4 0.00 0.00 0.00 52 1011.6
20260507012958 8 306 1.6 8.0 0.00 0.00 0.00 51 1011.6
20260507012457 8 326 1.6 8.0 0.00 0.00 0.00 51 1011.6
20260507011956 9 271 1.6 3.2 0.00 0.00 0.00 50 1011.5
20260507011457 9 261 0.0 4.8 0.00 0.00 0.00 50 1011.5
20260507010957 9 297 1.6 6.4 0.00 0.00 0.00 50 1011.5
20260507010458 9 307 3.2 6.4 0.00 0.00 0.00 50 1011.5
20260507005957 9 309 3.2 6.4 0.00 0.00 0.00 49 1011.5
20260507005457 9 315 1.6 6.4 0.00 0.00 0.00 49 1011.5
20260507004956 9 293 1.6 8.0 0.00 0.00 0.00 50 1011.5
20260507004457 9 310 1.6 8.0 0.00 0.00 0.00 50 1011.4
20260507003956 10 258 1.6 4.8 0.00 0.00 0.00 50 1011.5
20260507003456 10 299 1.6 9.7 0.00 0.00 0.00 49 1011.4
20260507002957 10 301 3.2 11.3 0.00 0.00 0.00 48 1011.3
20260507002457 10 261 4.8 16.1 0.00 0.00 0.00 48 1011.3
20260507001956 10 240 1.6 8.0 0.00 0.00 0.00 49 1011.1
20260507001457 10 282 1.6 6.4 0.00 0.00 0.00 49 1011.0
20260507000957 10 329 3.2 9.7 0.00 0.00 0.00 48 1011.0
20260507000458 10 219 3.2 9.7 0.00 0.00 0.00 48 1011.0
20260506235956 10 266 4.8 9.7 0.00 0.00 0.00 48 1011.0
20260506235457 10 320 3.2 9.7 0.00 0.00 0.00 48 1011.0
20260506234958 10 215 3.2 8.0 0.00 0.00 0.00 47 1010.9
20260506234456 10 325 3.2 8.0 0.00 0.00 0.00 47 1011.0
20260506233956 10 282 3.2 14.5 0.00 0.00 0.00 47 1011.0
20260506233457 10 288 4.8 11.3 0.00 0.00 0.00 47 1011.0
20260506232957 10 299 3.2 11.3 0.00 0.00 0.00 47 1011.0
20260506232457 10 295 3.2 8.0 0.00 0.00 0.00 47 1010.9
20260506231957 10 271 3.2 8.0 0.00 0.00 0.00 48 1010.9
20260506231457 10 297 1.6 11.3 0.00 0.00 0.00 48 1010.7
20260506230957 10 326 3.2 9.7 0.00 0.00 0.00 47 1010.8
20260506230457 10 320 1.6 12.9 0.00 0.00 0.00 46 1010.7
20260506225959 10 271 6.4 19.3 0.00 0.00 0.00 45 1010.7
20260506225458 11 225 8.0 19.3 0.00 0.00 0.00 44 1010.8
20260506224958 11 287 4.8 17.7 0.00 0.00 0.00 44 1010.7
20260506224457 11 340 4.8 17.7 0.00 0.00 0.00 42 1010.7
20260506223958 12 307 4.8 14.5 0.00 0.00 0.00 45 1010.9
20260506223458 11 295 6.4 14.5 0.00 0.00 0.00 45 1010.9
20260506222958 11 300 4.8 17.7 0.00 0.00 0.00 44 1010.8
20260506222459 11 212 6.4 17.7 0.00 0.00 0.00 43 1010.9
20260506221958 12 249 4.8 20.9 0.00 0.00 0.00 42 1010.8
20260506221458 13 313 8.0 20.9 0.00 0.00 0.00 42 1010.9
20260506220958 13 288 6.4 14.5 0.00 0.00 0.00 41 1010.8
20260506220458 11 226 4.8 14.5 0.00 0.00 0.00 44 1010.8
20260506215959 12 307 4.8 14.5 0.00 0.00 0.00 42 1010.7
20260506215457 12 326 4.8 17.7 0.00 0.00 0.00 44 1010.8
20260506214957 12 330 8.0 17.7 0.00 0.00 0.00 41 1010.8
20260506214457 11 266 3.2 17.7 0.00 0.00 0.00 44 1010.9
20260506213957 11 223 8.0 19.3 0.00 0.00 0.00 43 1010.7
20260506213457 12 271 8.0 19.3 0.00 0.00 0.00 42 1010.8
20260506212957 11 280 3.2 14.5 0.00 0.00 0.00 44 1010.7
20260506212457 11 341 4.8 22.5 0.00 0.00 0.00 43 1010.7
20260506211957 11 320 6.4 22.5 0.00 0.00 0.00 41 1010.7
20260506211457 12 283 4.8 17.7 0.00 0.00 0.00 41 1010.5
20260506210957 12 334 4.8 9.7 0.00 0.00 0.00 40 1010.6
20260506210457 12 302 6.4 12.9 0.00 0.00 0.00 42 1010.6
20260506205958 11 340 6.4 14.5 0.00 0.00 0.00 42 1010.9
20260506201958 12 271 6.4 17.7 0.00 0.00 0.00 44 1010.9
20260506201458 11 324 8.0 17.7 0.00 0.00 0.00 42 1010.9
20260506200958 12 349 3.2 16.1 0.00 0.00 0.00 43 1011.0
20260506200457 12 238 6.4 20.9 0.00 0.00 0.00 42 1010.9
20260506195957 12 245 8.0 22.5 0.00 0.00 0.00 42 1010.9
20260506195456 12 271 6.4 22.5 0.00 0.00 0.00 43 1011.0
20260506194957 11 334 6.4 17.7 0.00 0.00 0.00 43 1011.2
20260506194456 12 266 4.8 19.3 0.00 0.00 0.00 43 1011.1
20260506193957 11 305 3.2 19.3 0.00 0.00 0.00 44 1011.0
20260506193457 11 212 6.4 19.3 0.00 0.00 0.00 43 1011.0
20260506192956 12 194 4.8 17.7 0.00 0.00 0.00 43 1011.0
20260506192457 12 318 6.4 14.5 0.00 0.00 0.00 43 1011.1
20260506191956 12 290 6.4 16.1 0.00 0.00 0.00 45 1011.0
20260506191457 11 252 6.4 17.7 0.00 0.00 0.00 43 1010.9
20260506190956 12 290 6.4 17.7 0.00 0.00 0.00 45 1011.1
20260506190457 12 321 4.8 14.5 0.00 0.00 0.00 44 1011.1